Content
SEND FEEDBACK

Daily
Averages
Monthly
Summary
United States of America

UNION SPRINGS, ALABAMA


Home > North America > United States > Alabama
Elevation: 440 feet     Latitude: 32 01N     Longitude: 085 45W

WEATHER
 
SELECT A DAY
Number of Records: 181,926;   Date Range: 1/3/95 - 10/24/14
 
SHARE

PRINT THIS DATA

[ ← Previous Day ]
WEATHER ALMANAC - JULY 4, 2014
[ Next Day → ]
[ °C ]   °F
Weather ElementAverageHighLow
Temperature74.7 °F87.1 °F (2:53 pm)62.1 °F (4:53 am)
Dewpoint60.4 °F64 °F (9:53 pm)55.9 °F (12:53 pm)
Humidity65.1 %93 % (3:53 am)36 % (2:53 pm)
Barometer30.12 in30.15 in (8:53 am)30.08 in (1:53 am)
Wind Speed4.7 mph12.7 mph (2:53 pm)
Weather ElementAverage
Visibility9.9 mi
Wind DirectionSSE (165.7 °)

Weather ElementTotal
Precipitation---
Cooling Degree Days9.6 (Base 65)
Growing Degree Days24.6 (Base 50)
Averaged from 23 records on July 4, 2014
WEATHER CONDITIONS BREAKOUT
WIND DIRECTION BREAKOUT
WEATHER BY HOUR - JULY 4, 2014
[ °C ]   °F
Local TimeTemperatureDewpointHumidityBarometerVisibilityWind DirectionWind SpeedGust SpeedPrecipitationEventsConditions
1:53 AM64.9 °F62.1 °F90 %30.08 in10.0 miCalmClear
2:53 AM64.0 °F61.0 °F90 %30.09 in10.0 miCalmClear
3:53 AM63.0 °F61.0 °F93 %30.09 in10.0 miCalmClear
4:53 AM62.1 °F60.1 °F93 %30.10 in10.0 miNorth (350°)3.5 mphClear
5:53 AM62.1 °F60.1 °F93 %30.12 in8.0 miCalmClear
6:53 AM64.9 °F62.1 °F90 %30.14 in9.0 miCalmClear
7:53 AM70.0 °F61.0 °F73 %30.14 in10.0 miNNW (340°)6.9 mphClear
8:53 AM75.0 °F62.1 °F64 %30.15 in10.0 miCalmClear
9:53 AM79.0 °F61.0 °F54 %30.15 in10.0 miVariable5.8 mphClear
10:53 AM82.0 °F57.9 °F44 %30.15 in10.0 miNNW (330°)8.1 mphClear
11:53 AM84.0 °F57.0 °F40 %30.15 in10.0 miNorth (350°)9.2 mphClear
12:53 PM84.9 °F55.9 °F37 %30.14 in10.0 miNorth (360°)11.5 mphClear
1:53 PM86.0 °F57.9 °F38 %30.13 in10.0 miVariable4.6 mphClear
2:53 PM87.1 °F57.0 °F36 %30.12 in10.0 miNorth (360°)12.7 mphClear
3:53 PM86.0 °F57.0 °F37 %30.12 in10.0 miNorth (360°)10.4 mphClear
4:53 PM86.0 °F60.1 °F41 %30.11 in10.0 miNNW (340°)11.5 mphClear
5:53 PM84.0 °F60.1 °F44 %30.11 in10.0 miNNW (340°)11.5 mphClear
6:53 PM82.9 °F60.1 °F46 %30.11 in10.0 miNNW (340°)8.1 mphClear
7:53 PM78.1 °F62.1 °F58 %30.12 in10.0 miNNW (340°)4.6 mphClear
8:53 PM71.1 °F63.0 °F75 %30.12 in10.0 miCalmClear
9:53 PM68.0 °F64.0 °F87 %30.13 in10.0 miCalmClear
10:53 PM66.9 °F63.0 °F87 %30.14 in10.0 miCalmClear
11:53 PM66.9 °F63.0 °F87 %30.14 in10.0 miCalmClear
Hourly data recorded from KTOI, located miles away from Union Springs, Alabama







STORIES FROM OUR PARTNERS